User: anonymous   Login
Location: Corralito
(10.2667°N, 66.9500°W)
Time: 13:57:41
(UTC+00:00)
Language:

FALCON 9 DEB - Orbit

View from above orbital plane
View from above orbital plane
View from above satellite
View from above satellite

Ground track
Ground track

The orbit data is extracted from the following two-line orbital elements,

1 44295U 19029BN  23091.34047037  .12728248  12652-4  16393-3 0  9997
2 44295  52.9798 246.6740 0006114 288.1594  71.8789 16.49117316219678
Epoch (UTC): 01 April 2023 08:10:16
Eccentricity: 0.0006114
inclination: 52.9798°
perigee height: 137 km
apogee height: 145 km
right ascension of ascending node: 246.6740°
argument of perigee: 288.1594°
revolutions per day: 16.49117316
mean anomaly at epoch: 71.8789°
orbit number at epoch: 21967

The dashed part of the orbit path shows where the satellite is in the earth's shadow,  

DLR